Content
SEND FEEDBACK

Daily
Averages
Monthly
Summary
Germany

LUBECK, GERMANY


Home > Europe > Germany
Elevation: 56 feet     Latitude: 54 00N     Longitude: 011 12E

WEATHER
 
SELECT A DAY
Number of Records: 57,568;   Date Range: 7/3/96 - 7/9/14
 
SHARE

PRINT THIS DATA

[ ← Previous Day ]
WEATHER ALMANAC - JANUARY 29, 2014
[ Next Day → ]
[ °C ]   °F
Weather ElementAverageHighLow
Temperature21.7 °F26 °F (1:00 am)19.4 °F (7:50 pm)
Dewpoint16.3 °F24 °F (1:00 am)14 °F (12:50 pm)
Humidity77.3 %88 % (1:00 am)62 % (4:00 pm)
Barometer29.84 in29.91 in (10:00 pm)29.78 in (1:00 am)
Wind Speed10.9 mph13.8 mph (3:50 pm)
Weather ElementAverage
Visibility5.5 mi
Wind DirectionESE (101.5 °)

Weather ElementTotal
Precipitation---
Heating Degree Days42.3 (Base 65)
Averaged from 55 records on January 29, 2014
WEATHER CONDITIONS BREAKOUT
WIND DIRECTION BREAKOUT
WEATHER BY HOUR - JANUARY 29, 2014
[ °C ]   °F
Local TimeTemperatureDewpointHumidityBarometerVisibilityWind DirectionWind SpeedGust SpeedPrecipitationEventsConditions
1:00 AM26.0 °F24.0 °F88 %29.78 in3.0 miESE (120°)11.2 mphMist
2:00 AM26.0 °F23.0 °F84 %29.78 in4.0 miSE (130°)11.2 mphMist
3:00 AM26.0 °F23.0 °F83 %29.78 in4.0 miESE (110°)6.7 mphMist
4:00 AM24.0 °F22.0 °F88 %29.78 in3.0 miEast (80°)11.2 mphMist
5:00 AM23.0 °F20.0 °F83 %29.78 in4.0 miEast (90°)11.2 mphMist
6:00 AM23.0 °F19.0 °F79 %29.79 in3.0 miEast (100°)11.2 mphMist
6:20 AM23.0 °F17.6 °F80 %29.80 in6.2 miESE (110°)11.5 mphMostly Cloudy
6:50 AM23.0 °F17.6 °F80 %29.80 in6.2 miESE (110°)10.4 mphMostly Cloudy
7:00 AM22.0 °F18.0 °F78 %29.81 in4.0 miEast (100°)8.9 mphMist
7:20 AM23.0 °F17.6 °F80 %29.80 in6.2 miEast (100°)11.5 mphSnowLight Snow
7:50 AM21.2 °F17.6 °F86 %29.80 in6.2 miEast (100°)11.5 mphSnowLight Snow
8:00 AM22.0 °F18.0 °F77 %29.81 in4.0 miEast (90°)11.2 mphSnowSnow
8:20 AM21.2 °F17.6 °F86 %29.80 in6.2 miESE (110°)9.2 mphSnowLight Snow
8:50 AM21.2 °F15.8 °F80 %29.80 in6.2 miEast (100°)12.7 mphSnowLight Snow
9:00 AM21.0 °F17.0 °F80 %29.83 in4.0 miEast (90°)13.4 mphSnowLight Snow
9:20 AM21.2 °F15.8 °F80 %29.83 in5.6 miEast (100°)12.7 mphSnowLight Snow
9:50 AM21.2 °F15.8 °F80 %29.83 in6.2 miEast (100°)11.5 mphSnowLight Snow
10:00 AM21.0 °F17.0 °F79 %29.84 in4.0 miEast (90°)11.2 mphSnowSnow
10:20 AM21.2 °F15.8 °F80 %29.83 in6.2 miEast (100°)11.5 mphMostly Cloudy
10:50 AM21.2 °F15.8 °F80 %29.83 in5.0 miEast (100°)12.7 mphSnowLight Snow
11:00 AM22.0 °F17.0 °F74 %29.85 in4.0 miEast (90°)13.4 mphSnowLight Snow
11:20 AM21.2 °F17.6 °F86 %29.83 in1.9 miEast (100°)11.5 mphSnowSnow
11:50 AM21.2 °F17.6 °F86 %29.83 in3.1 miEast (100°)12.7 mphSnowLight Snow
12:00 PM21.0 °F18.0 °F85 %29.85 in2.0 miEast (90°)11.2 mphSnowLight Snow
12:20 PM21.2 °F15.8 °F80 %29.83 in6.2 miEast (100°)12.7 mphMostly Cloudy
12:50 PM23.0 °F14.0 °F68 %29.83 in6.2 miESE (110°)10.4 mphMostly Cloudy
1:00 PM22.0 °F16.0 °F67 %29.85 in6.0 miEast (100°)11.2 mphSnowSnow
1:20 PM23.0 °F14.0 °F68 %29.83 in6.2 miESE (110°)10.4 mphMostly Cloudy
1:50 PM23.0 °F14.0 °F68 %29.83 in6.2 miEast (100°)10.4 mphMostly Cloudy
2:00 PM22.0 °F16.0 °F68 %29.84 in7.0 miEast (100°)8.9 mphOvercast
2:20 PM23.0 °F14.0 °F68 %29.83 in6.2 miESE (110°)11.5 mphMostly Cloudy
2:50 PM21.2 °F14.0 °F74 %29.83 in6.2 miEast (100°)12.7 mphMostly Cloudy
3:00 PM22.0 °F15.0 °F65 %29.83 in7.0 miEast (90°)11.2 mphOvercast
3:20 PM23.0 °F14.0 °F68 %29.83 in6.2 miESE (110°)10.4 mphMostly Cloudy
3:50 PM21.2 °F14.0 °F74 %29.83 in6.2 miEast (100°)13.8 mphMostly Cloudy
4:00 PM22.0 °F15.0 °F62 %29.85 in7.0 miEast (90°)13.4 mph
4:20 PM21.2 °F14.0 °F74 %29.83 in6.2 miEast (100°)12.7 mphMostly Cloudy
4:50 PM21.2 °F14.0 °F74 %29.83 in6.2 miEast (100°)11.5 mphMostly Cloudy
5:00 PM21.0 °F15.0 °F68 %29.85 in7.0 miEast (90°)11.2 mphOvercast
5:20 PM21.2 °F14.0 °F74 %29.86 in6.2 miESE (110°)10.4 mphMostly Cloudy
5:50 PM21.2 °F14.0 °F74 %29.86 in6.2 miEast (100°)10.4 mphMostly Cloudy
6:00 PM21.0 °F15.0 °F70 %29.87 in7.0 miEast (100°)11.2 mphOvercast
6:20 PM21.2 °F14.0 °F74 %29.86 in6.2 miESE (110°)11.5 mphMostly Cloudy
6:50 PM21.2 °F14.0 °F74 %29.86 in6.2 miESE (110°)10.4 mphMostly Cloudy
7:00 PM20.0 °F15.0 °F72 %29.88 in7.0 miEast (100°)11.2 mphOvercast
7:20 PM21.2 °F14.0 °F74 %29.89 in6.2 miESE (110°)10.4 mphMostly Cloudy
7:50 PM19.4 °F14.0 °F80 %29.89 in6.2 miESE (110°)10.4 mphMostly Cloudy
8:00 PM20.0 °F15.0 °F75 %29.89 in6.0 miEast (100°)11.2 mphOvercast
8:20 PM19.4 °F15.8 °F86 %29.89 in6.2 miEast (100°)9.2 mphMostly Cloudy
8:50 PM19.4 °F15.8 °F86 %29.89 in6.2 miESE (110°)9.2 mphMostly Cloudy
9:00 PM20.0 °F16.0 °F78 %29.90 in6.0 miEast (100°)8.9 mphOvercast
9:20 PM19.4 °F15.8 °F86 %29.89 in6.2 miEast (100°)9.2 mphMostly Cloudy
9:50 PM19.4 °F15.8 °F86 %29.89 in6.2 miESE (110°)8.1 mphMostly Cloudy
10:00 PM20.0 °F16.0 °F78 %29.91 in6.0 miEast (100°)6.7 mphOvercast
11:00 PM20.0 °F16.0 °F79 %29.91 in5.0 miEast (90°)6.7 mphOvercast
Hourly data recorded from EDHL, located miles away from Lubeck, Germany







STORIES FROM OUR PARTNERS